VSP147 SBGR-SBLO

Flight info

Callsign VSP147
Flight time 0h 53m
Altitude 30000
Route EGEVA UZ58 UMPIG
Aircraft B738/M-SDE2E3FGHIRWXY/LB1

Departure

Time 2026-04-22 08:10
Airport São Paulo/Guarulhos–Governor André Franco Montoro International Airport (SBGR)

Arrival

Time 2026-04-22 09:03
Airport Governor José Richa Airport (SBLO)
Time Latitude Longitude Altitude Speed Heading
2026-04-22 07:56 -23.43140 -46.48921 2437 ft 0 kts 277°
2026-04-22 07:59 -23.43141 -46.48907 2438 ft 2 kts 276°
2026-04-22 08:00 -23.43143 -46.48891 2439 ft 2 kts 277°
2026-04-22 08:00 -23.43145 -46.48875 2439 ft 2 kts 277°
2026-04-22 08:00 -23.43146 -46.48864 2440 ft 2 kts 274°
2026-04-22 08:00 -23.43144 -46.48848 2440 ft 2 kts 250°
2026-04-22 08:01 -23.43137 -46.48833 2440 ft 2 kts 231°
2026-04-22 08:01 -23.43126 -46.48823 2441 ft 2 kts 212°
2026-04-22 08:01 -23.43112 -46.48816 2441 ft 2 kts 192°
2026-04-22 08:01 -23.43104 -46.48815 2441 ft 1 kts 182°
2026-04-22 08:02 -23.43099 -46.48815 2441 ft 0 kts 182°
2026-04-22 08:03 -23.43103 -46.48815 2441 ft 3 kts 181°
2026-04-22 08:03 -23.43126 -46.48815 2441 ft 2 kts 181°
2026-04-22 08:04 -23.43143 -46.48814 2441 ft 4 kts 169°
2026-04-22 08:04 -23.43159 -46.48800 2441 ft 3 kts 123°
2026-04-22 08:04 -23.43170 -46.48765 2442 ft 4 kts 99°
2026-04-22 08:04 -23.43174 -46.48733 2442 ft 4 kts 96°
2026-04-22 08:05 -23.43177 -46.48702 2443 ft 3 kts 95°
2026-04-22 08:05 -23.43179 -46.48672 2443 ft 4 kts 93°
2026-04-22 08:05 -23.43181 -46.48634 2444 ft 6 kts 94°
2026-04-22 08:05 -23.43184 -46.48579 2444 ft 8 kts 94°
2026-04-22 08:06 -23.43190 -46.48504 2444 ft 10 kts 95°
2026-04-22 08:06 -23.43201 -46.48446 2445 ft 5 kts 124°
2026-04-22 08:06 -23.43225 -46.48427 2446 ft 4 kts 153°
2026-04-22 08:06 -23.43260 -46.48412 2447 ft 5 kts 164°
2026-04-22 08:07 -23.43302 -46.48400 2448 ft 6 kts 167°
2026-04-22 08:07 -23.43341 -46.48390 2449 ft 5 kts 164°
2026-04-22 08:07 -23.43371 -46.48376 2450 ft 4 kts 152°
2026-04-22 08:07 -23.43392 -46.48358 2451 ft 5 kts 137°
2026-04-22 08:08 -23.43411 -46.48333 2452 ft 3 kts 119°
2026-04-22 08:08 -23.43416 -46.48302 2452 ft 5 kts 85°
2026-04-22 08:08 -23.43408 -46.48258 2453 ft 5 kts 75°
2026-04-22 08:08 -23.43393 -46.48205 2453 ft 19 kts 74°
2026-04-22 08:09 -23.43284 -46.47792 2452 ft 96 kts 73°
2026-04-22 08:09 -23.43039 -46.46869 2451 ft 152 kts 75°
2026-04-22 08:09 -23.42718 -46.45594 2481 ft 191 kts 75°
2026-04-22 08:09 -23.42360 -46.44167 2853 ft 203 kts 75°
2026-04-22 08:10 -23.41981 -46.42601 3299 ft 222 kts 75°
2026-04-22 08:10 -23.41475 -46.40967 3784 ft 239 kts 69°
2026-04-22 08:10 -23.40883 -46.39219 4273 ft 248 kts 72°
2026-04-22 08:10 -23.40512 -46.37373 4781 ft 261 kts 84°
2026-04-22 08:11 -23.40496 -46.35389 5283 ft 266 kts 96°
2026-04-22 08:11 -23.40858 -46.33430 5783 ft 268 kts 105°
2026-04-22 08:11 -23.41440 -46.31527 6280 ft 271 kts 109°
2026-04-22 08:11 -23.42125 -46.29628 6774 ft 275 kts 115°
2026-04-22 08:12 -23.43160 -46.27919 7261 ft 279 kts 130°
2026-04-22 08:12 -23.44609 -46.26557 7753 ft 285 kts 147°
2026-04-22 08:12 -23.46381 -46.25690 8243 ft 290 kts 164°
2026-04-22 08:12 -23.48391 -46.25446 8751 ft 294 kts 182°
2026-04-22 08:13 -23.50417 -46.25709 9369 ft 296 kts 192°
2026-04-22 08:13 -23.52362 -46.26431 9994 ft 299 kts 208°
2026-04-22 08:13 -23.54115 -46.27678 10628 ft 300 kts 223°
2026-04-22 08:13 -23.55552 -46.29335 10981 ft 314 kts 237°
2026-04-22 08:14 -23.56605 -46.31507 11084 ft 336 kts 252°
2026-04-22 08:14 -23.57275 -46.34052 11347 ft 353 kts 259°
2026-04-22 08:14 -23.57789 -46.36671 12066 ft 356 kts 260°
2026-04-22 08:14 -23.58292 -46.39321 12766 ft 360 kts 260°
2026-04-22 08:15 -23.58802 -46.41970 13497 ft 362 kts 260°
2026-04-22 08:15 -23.59332 -46.44684 14223 ft 365 kts 260°
2026-04-22 08:15 -23.59866 -46.47399 14931 ft 368 kts 260°
2026-04-22 08:15 -23.60402 -46.50114 15638 ft 371 kts 260°
2026-04-22 08:16 -23.60944 -46.52901 16205 ft 377 kts 261°
2026-04-22 08:16 -23.61379 -46.55716 16978 ft 376 kts 263°
2026-04-22 08:16 -23.61773 -46.58541 17621 ft 379 kts 264°
2026-04-22 08:16 -23.62179 -46.61368 18240 ft 383 kts 262°
2026-04-22 08:17 -23.62831 -46.64183 18861 ft 388 kts 254°
2026-04-22 08:17 -23.63840 -46.66938 19445 ft 393 kts 247°
2026-04-22 08:17 -23.65155 -46.69546 20044 ft 398 kts 242°
2026-04-22 08:17 -23.66615 -46.72117 20605 ft 401 kts 241°
2026-04-22 08:18 -23.67906 -46.74795 21104 ft 401 kts 252°
2026-04-22 08:18 -23.68555 -46.77757 21677 ft 397 kts 267°
2026-04-22 08:18 -23.68499 -46.80718 22191 ft 396 kts 281°
2026-04-22 08:18 -23.67746 -46.83606 22694 ft 396 kts 294°
2026-04-22 08:19 -23.66445 -46.86226 23217 ft 397 kts 302°
2026-04-22 08:19 -23.64919 -46.88747 23672 ft 400 kts 304°
2026-04-22 08:19 -23.63327 -46.91261 24161 ft 402 kts 304°
2026-04-22 08:19 -23.61740 -46.93752 24620 ft 404 kts 304°
2026-04-22 08:20 -23.60139 -46.96265 25082 ft 406 kts 304°
2026-04-22 08:20 -23.58525 -46.98803 25518 ft 408 kts 304°
2026-04-22 08:20 -23.56894 -47.01366 25955 ft 410 kts 304°
2026-04-22 08:20 -23.55262 -47.03935 26377 ft 412 kts 304°
2026-04-22 08:21 -23.53632 -47.06499 26773 ft 415 kts 304°
2026-04-22 08:21 -23.51990 -47.09082 27165 ft 417 kts 304°
2026-04-22 08:21 -23.50351 -47.11658 27541 ft 419 kts 304°
2026-04-22 08:21 -23.48687 -47.14266 27924 ft 421 kts 304°
2026-04-22 08:22 -23.47002 -47.16907 28290 ft 423 kts 304°
2026-04-22 08:22 -23.45334 -47.19522 28650 ft 425 kts 304°
2026-04-22 08:22 -23.43633 -47.22190 29037 ft 427 kts 304°
2026-04-22 08:22 -23.41964 -47.24809 29503 ft 426 kts 304°
2026-04-22 08:23 -23.40274 -47.27460 29974 ft 424 kts 304°
2026-04-22 08:23 -23.38596 -47.30088 30135 ft 426 kts 304°
2026-04-22 08:23 -23.35177 -47.35443 30130 ft 433 kts 304°
2026-04-22 08:24 -23.31759 -47.40792 30127 ft 433 kts 304°
2026-04-22 08:24 -23.28318 -47.46176 30128 ft 432 kts 304°
2026-04-22 08:25 -23.24903 -47.51517 30128 ft 432 kts 304°
2026-04-22 08:25 -23.21495 -47.56891 30127 ft 432 kts 301°
2026-04-22 08:26 -23.18902 -47.62769 30128 ft 432 kts 289°
2026-04-22 08:26 -23.17549 -47.69098 30129 ft 433 kts 278°
2026-04-22 08:27 -23.17175 -47.75617 30128 ft 434 kts 274°
2026-04-22 08:27 -23.16933 -47.82152 30128 ft 434 kts 274°
2026-04-22 08:28 -23.16690 -47.88742 30128 ft 434 kts 274°
2026-04-22 08:28 -23.16448 -47.95249 30128 ft 434 kts 274°
2026-04-22 08:29 -23.16200 -48.01821 30128 ft 434 kts 274°
2026-04-22 08:29 -23.15950 -48.08371 30128 ft 434 kts 274°
2026-04-22 08:30 -23.15696 -48.14920 30128 ft 434 kts 274°
2026-04-22 08:30 -23.15438 -48.21487 30128 ft 434 kts 274°
2026-04-22 08:31 -23.15180 -48.27992 30128 ft 434 kts 274°
2026-04-22 08:32 -23.14785 -48.37848 30128 ft 434 kts 274°
2026-04-22 08:32 -23.14520 -48.44394 30128 ft 434 kts 274°
2026-04-22 08:33 -23.14252 -48.50943 30128 ft 434 kts 274°
2026-04-22 08:33 -23.14265 -48.57504 30128 ft 436 kts 269°
2026-04-22 08:34 -23.14734 -48.64033 30128 ft 436 kts 267°
2026-04-22 08:34 -23.15268 -48.70598 30128 ft 436 kts 267°
2026-04-22 08:35 -23.15818 -48.77168 30128 ft 436 kts 267°
2026-04-22 08:35 -23.16369 -48.83688 30128 ft 436 kts 267°
2026-04-22 08:36 -23.16926 -48.90244 30128 ft 436 kts 267°
2026-04-22 08:36 -23.17483 -48.96814 30128 ft 436 kts 267°
2026-04-22 08:37 -23.18036 -49.03342 30121 ft 433 kts 267°
2026-04-22 08:37 -23.18586 -49.09864 30114 ft 429 kts 267°
2026-04-22 08:38 -23.19122 -49.16277 30107 ft 426 kts 267°
2026-04-22 08:38 -23.19680 -49.22638 30101 ft 423 kts 267°
2026-04-22 08:39 -23.20253 -49.28981 30101 ft 424 kts 267°
2026-04-22 08:39 -23.20830 -49.35339 30101 ft 424 kts 267°
2026-04-22 08:40 -23.21385 -49.41710 30100 ft 422 kts 268°
2026-04-22 08:40 -23.21623 -49.44870 30093 ft 408 kts 268°
2026-04-22 08:40 -23.21845 -49.47878 30102 ft 400 kts 268°
2026-04-22 08:41 -23.22293 -49.53965 30103 ft 406 kts 268°
2026-04-22 08:41 -23.22748 -49.60090 30100 ft 406 kts 268°
2026-04-22 08:42 -23.23201 -49.66165 30035 ft 399 kts 268°
2026-04-22 08:42 -23.23421 -49.69114 29553 ft 392 kts 268°
2026-04-22 08:42 -23.23641 -49.72058 28995 ft 386 kts 268°
2026-04-22 08:42 -23.23854 -49.74917 28463 ft 380 kts 268°
2026-04-22 08:43 -23.24073 -49.77748 27936 ft 375 kts 268°
2026-04-22 08:43 -23.24294 -49.80567 27420 ft 382 kts 268°
2026-04-22 08:43 -23.24522 -49.83490 26874 ft 392 kts 267°
2026-04-22 08:43 -23.24753 -49.86411 26308 ft 386 kts 267°
2026-04-22 08:44 -23.24983 -49.89302 25759 ft 380 kts 267°
2026-04-22 08:44 -23.25207 -49.92130 25223 ft 374 kts 267°
2026-04-22 08:44 -23.25427 -49.94917 24694 ft 368 kts 267°
2026-04-22 08:44 -23.25642 -49.97645 24174 ft 363 kts 267°
2026-04-22 08:45 -23.25855 -50.00364 23652 ft 358 kts 267°
2026-04-22 08:45 -23.26066 -50.03065 23137 ft 362 kts 267°
2026-04-22 08:45 -23.26279 -50.05830 22610 ft 374 kts 267°
2026-04-22 08:45 -23.26497 -50.08629 22049 ft 369 kts 267°
2026-04-22 08:46 -23.26712 -50.11376 21513 ft 363 kts 268°
2026-04-22 08:46 -23.26924 -50.14108 20980 ft 358 kts 268°
2026-04-22 08:46 -23.27129 -50.16769 20458 ft 354 kts 268°
2026-04-22 08:46 -23.27334 -50.19430 19935 ft 350 kts 268°
2026-04-22 08:47 -23.27535 -50.22041 19416 ft 346 kts 268°
2026-04-22 08:47 -23.27732 -50.24610 18908 ft 342 kts 268°
2026-04-22 08:47 -23.27925 -50.27172 18396 ft 339 kts 268°
2026-04-22 08:47 -23.28119 -50.29745 17892 ft 345 kts 268°
2026-04-22 08:48 -23.28315 -50.32359 17367 ft 354 kts 267°
2026-04-22 08:48 -23.28517 -50.35021 16817 ft 349 kts 267°
2026-04-22 08:48 -23.28715 -50.37617 16294 ft 345 kts 267°
2026-04-22 08:48 -23.28776 -50.40199 15776 ft 341 kts 273°
2026-04-22 08:49 -23.28660 -50.42757 15258 ft 338 kts 275°
2026-04-22 08:49 -23.28505 -50.45307 14739 ft 335 kts 275°
2026-04-22 08:49 -23.28356 -50.47820 14226 ft 333 kts 275°
2026-04-22 08:49 -23.28215 -50.50307 13715 ft 331 kts 275°
2026-04-22 08:50 -23.28079 -50.52788 13206 ft 328 kts 275°
2026-04-22 08:50 -23.27946 -50.55263 12696 ft 327 kts 274°
2026-04-22 08:50 -23.27816 -50.57700 12192 ft 325 kts 274°
2026-04-22 08:50 -23.27684 -50.60151 11684 ft 323 kts 274°
2026-04-22 08:51 -23.27554 -50.62581 11272 ft 318 kts 274°
2026-04-22 08:51 -23.27431 -50.64878 11118 ft 294 kts 274°
2026-04-22 08:51 -23.27316 -50.67028 10981 ft 275 kts 274°
2026-04-22 08:51 -23.27207 -50.69038 10796 ft 259 kts 274°
2026-04-22 08:52 -23.27102 -50.70953 10609 ft 249 kts 274°
2026-04-22 08:52 -23.26996 -50.72885 10440 ft 264 kts 274°
2026-04-22 08:52 -23.26884 -50.74916 10223 ft 269 kts 274°
2026-04-22 08:52 -23.26776 -50.76921 9995 ft 265 kts 274°
2026-04-22 08:53 -23.26666 -50.78919 9646 ft 265 kts 274°
2026-04-22 08:53 -23.26557 -50.80926 9316 ft 265 kts 273°
2026-04-22 08:53 -23.26448 -50.82899 8996 ft 264 kts 273°
2026-04-22 08:53 -23.26337 -50.84910 8669 ft 264 kts 273°
2026-04-22 08:54 -23.26229 -50.86876 8349 ft 263 kts 273°
2026-04-22 08:54 -23.26119 -50.88862 8026 ft 263 kts 273°
2026-04-22 08:54 -23.26009 -50.90841 7702 ft 262 kts 272°
2026-04-22 08:54 -23.25900 -50.92812 7413 ft 256 kts 272°
2026-04-22 08:55 -23.25793 -50.94721 7064 ft 249 kts 272°
2026-04-22 08:55 -23.25690 -50.96558 6750 ft 241 kts 272°
2026-04-22 08:55 -23.25590 -50.98338 6464 ft 234 kts 272°
2026-04-22 08:55 -23.25492 -51.00058 6319 ft 217 kts 272°
2026-04-22 08:56 -23.25402 -51.01641 6207 ft 201 kts 272°
2026-04-22 08:56 -23.25317 -51.03103 6098 ft 187 kts 274°
2026-04-22 08:56 -23.25132 -51.04460 6011 ft 182 kts 279°
2026-04-22 08:56 -23.24878 -51.05783 5924 ft 172 kts 281°
2026-04-22 08:57 -23.24628 -51.07019 5792 ft 167 kts 281°
2026-04-22 08:57 -23.24377 -51.08271 5722 ft 170 kts 281°
2026-04-22 08:57 -23.24128 -51.09531 5613 ft 172 kts 281°
2026-04-22 08:57 -23.23878 -51.10799 5504 ft 170 kts 281°
2026-04-22 08:58 -23.23630 -51.12053 5432 ft 169 kts 281°
2026-04-22 08:58 -23.23384 -51.13300 5308 ft 170 kts 281°
2026-04-22 08:58 -23.23146 -51.14565 5204 ft 169 kts 277°
2026-04-22 08:58 -23.23114 -51.15828 5091 ft 160 kts 263°
2026-04-22 08:59 -23.23349 -51.16981 4908 ft 157 kts 250°
2026-04-22 08:59 -23.23823 -51.18038 4544 ft 154 kts 236°
2026-04-22 08:59 -23.24491 -51.18914 4311 ft 149 kts 223°
2026-04-22 08:59 -23.25315 -51.19600 4133 ft 153 kts 211°
2026-04-22 09:00 -23.26288 -51.20077 3891 ft 153 kts 197°
2026-04-22 09:00 -23.27322 -51.20291 3684 ft 151 kts 184°
2026-04-22 09:00 -23.28360 -51.20243 3519 ft 148 kts 171°
2026-04-22 09:00 -23.29367 -51.19941 3357 ft 153 kts 159°
2026-04-22 09:01 -23.30298 -51.19389 3105 ft 151 kts 145°
2026-04-22 09:01 -23.31064 -51.18640 2904 ft 148 kts 132°
2026-04-22 09:01 -23.31657 -51.17724 2734 ft 150 kts 120°
2026-04-22 09:01 -23.32117 -51.16707 2528 ft 150 kts 114°
2026-04-22 09:02 -23.32492 -51.15655 2318 ft 149 kts 110°
2026-04-22 09:02 -23.32835 -51.14595 2139 ft 146 kts 110°
2026-04-22 09:02 -23.33181 -51.13551 1907 ft 148 kts 111°
2026-04-22 09:02 -23.33488 -51.12644 1833 ft 99 kts 112°
2026-04-22 09:03 -23.33629 -51.12224 1821 ft 21 kts 111°
2026-04-22 09:03 -23.33662 -51.12150 1820 ft 8 kts 94°
2026-04-22 09:03 -23.33630 -51.12147 1819 ft 6 kts 276°
2026-04-22 09:03 -23.33634 -51.12169 1820 ft 1 kts 267°
2026-04-22 09:04 -23.33633 -51.12188 1820 ft 4 kts 277°
2026-04-22 09:04 -23.33626 -51.12221 1821 ft 5 kts 288°
2026-04-22 09:04 -23.33615 -51.12257 1822 ft 5 kts 290°
2026-04-22 09:04 -23.33602 -51.12295 1822 ft 5 kts 290°
2026-04-22 09:05 -23.33589 -51.12334 1823 ft 5 kts 290°
2026-04-22 09:05 -23.33575 -51.12377 1824 ft 5 kts 292°
2026-04-22 09:05 -23.33552 -51.12417 1825 ft 7 kts 311°
2026-04-22 09:05 -23.33510 -51.12461 1826 ft 9 kts 317°
2026-04-22 09:06 -23.33464 -51.12506 1827 ft 6 kts 320°
2026-04-22 09:06 -23.33439 -51.12528 1828 ft 3 kts 319°
2026-04-22 09:06 -23.33428 -51.12539 1828 ft 1 kts 317°
2026-04-22 09:06 -23.33417 -51.12553 1829 ft 3 kts 304°
2026-04-22 09:07 -23.33405 -51.12580 1830 ft 4 kts 293°
2026-04-22 09:07 -23.33391 -51.12620 1832 ft 6 kts 290°
2026-04-22 09:07 -23.33373 -51.12674 1834 ft 8 kts 290°
2026-04-22 09:07 -23.33357 -51.12723 1836 ft 5 kts 290°
2026-04-22 09:08 -23.33349 -51.12746 1837 ft 1 kts 290°
2026-04-22 09:08 -23.33348 -51.12750 1837 ft 0 kts 289°
2026-04-22 09:08 -23.33344 -51.12761 1837 ft 2 kts 289°
2026-04-22 09:08 -23.33337 -51.12784 1838 ft 4 kts 289°
2026-04-22 09:09 -23.33325 -51.12820 1839 ft 5 kts 289°
2026-04-22 09:09 -23.33309 -51.12868 1842 ft 7 kts 289°
2026-04-22 09:09 -23.33292 -51.12922 1844 ft 7 kts 289°
2026-04-22 09:09 -23.33272 -51.12981 1847 ft 9 kts 291°
2026-04-22 09:10 -23.33247 -51.13052 1850 ft 11 kts 290°
2026-04-22 09:10 -23.33219 -51.13137 1853 ft 11 kts 290°
2026-04-22 09:10 -23.33194 -51.13212 1855 ft 6 kts 290°
2026-04-22 09:10 -23.33174 -51.13270 1857 ft 9 kts 291°
2026-04-22 09:11 -23.33149 -51.13343 1860 ft 11 kts 290°
2026-04-22 09:11 -23.33119 -51.13432 1864 ft 13 kts 290°
2026-04-22 09:11 -23.33092 -51.13514 1865 ft 7 kts 290°
2026-04-22 09:11 -23.33079 -51.13552 1866 ft 3 kts 290°
2026-04-22 09:12 -23.33070 -51.13578 1867 ft 4 kts 290°
2026-04-22 09:12 -23.33057 -51.13615 1868 ft 4 kts 291°
2026-04-22 09:12 -23.33049 -51.13638 1869 ft 2 kts 291°
2026-04-22 09:12 -23.33045 -51.13650 1869 ft 2 kts 291°
2026-04-22 09:13 -23.33036 -51.13674 1869 ft 3 kts 291°
2026-04-22 09:13 -23.33026 -51.13696 1869 ft 2 kts 314°
2026-04-22 09:13 -23.33017 -51.13701 1869 ft 1 kts 344°
2026-04-22 09:13 -23.33003 -51.13702 1869 ft 3 kts
2026-04-22 09:14 -23.32978 -51.13695 1869 ft 3 kts 17°
2026-04-22 09:14 -23.32959 -51.13688 1869 ft 0 kts 18°